Location: Home
(42.5358°N, 72.7383°W)
Time: 14:36:51
(UTC-05:00)

Vanguard 3 - Pass Details

Date: 05 December 2021
Orbit: 508 x 3260 km, 33.3° (Epoch: 20 January)

Event Time Altitude Azimuth Distance (km) Brightness Sun altitude
Rises 02:02:01 0° 221° (SW) 6,571 - -54.6°
Reaches altitude 10° 02:06:24 10° 215° (SW) 5,807 - -53.8°
Exits shadow 02:21:33 43° 164° (SSE) 4,095 10.4 -51.2°
Maximum altitude 02:23:37 44° 152° (SSE) 4,052 10.5 -50.9°
Drops below altitude 10° 02:40:08 10° 89° (E) 5,617 11.9 -47.9°
Sets 02:44:14 0° 83° (E) 6,352 12.4 -47.2°
